Tracking 25734 objects as of 27-May-2022
HD Live streaming from Space Station
objects crossing your sky now

COSMOS 1823 DEB

Track COSMOS 1823 DEB now!
10-day predictions


NORAD ID: 18751
Int'l Code: 1987-020AC
Perigee: 1,484.8 km
Apogee: 1,603.7 km
Inclination: 73.6 °
Period: 116.8 minutes
Semi major axis: 7915 km
RCS: 0.1997 m2 (medium)
Launch date: February 20, 1987
Source: Commonwealth of Independent States (former USSR) (CIS)
Launch site: PLESETSK MISSILE AND SPACE COMPLEX (PKMTR)

Note: This is SATELLITE DEBRIS
aabbcc
Your satellite tracking list
Your tracking list is empty




NASA's NSSDC Master Catalog

Two Line Element Set (TLE):
1 18751U 87020AC  22147.49288898  .00000030  00000-0  37833-3 0  9991
2 18751  73.6275 172.4817 0075129  89.9537  26.8045 12.32840402549604
Source of the keplerian elements: AFSPC